Portada
METAR-TAF:

METAR-TAF

Aeroports :

Merimbula, Austràlia

latitud: 36-54-31S, longitud: 149-54-05E, altitud: 2 m

Observació

L'informe es va fer fa 19 minuts, a les 00:00 UTC
Vent 10 kt del Est
Temperatura 20°C
Humitat 56%
Pressió 1014 hPa
Visibilitat 10 km o més

METAR: YMER 220000Z AUTO 10010KT 9999 // NCD 20/11 Q1014

Hora: 11:19 (00:19 UTC)


TAF: manca

Observacions i pronòstics meteorològics de més de 4000 aeroports (METAR i TAF).

Les estacions disponibles són els punts grocs i vermells al mapa.

Posi el ratolí al punt desitjat per veure el nom de l'estació.

Feu clic per veure les observacions i els pronòstics meteorològics.

Per canviar el mapa: feu clic els botons verds amb una creu de color negre per apropar; al botó verd amb un guió per allunyar la imatge; o en les fletxes verdes per a mapes adjacents.


METAR-TAF: